Regional Weather Roundup
Issued by NWS

Home | Current Version | Previous Version | Text Only | Print | Product List | Glossary On
Versions: 1 2 3 4 5 6 7 8 9 10 11 12 13 14 15 16 17 18 19 20 21 22 23 24 25 26 27 28 29 30 31 32 33 34 35 36 37 38 39 40 41 42 43 44 45 46 47 48 49 50
000
ASUS43 KTOP 251659
RWRKS

WEATHER ROUNDUP FOR KANSAS
NATIONAL WEATHER SERVICE GOODLAND KS
1100 AM CST SAT FEB 25 2017

NOTE:  "FAIR" INDICATES FEW OR NO CLOUDS BELOW 12,000 FEET WITH NO
SIGNIFICANT WEATHER AND/OR OBSTRUCTIONS TO VISIBILITY.

KSZ001>006-013>018-027>032-041>047-251800-
NORTHWEST KANSAS

CITY           SKY/WX    TMP DP  RH WIND       PRES   REMARKS
GOODLAND       SUNNY     34  20  56 W16       30.00F WCI  24
HAYS           SUNNY     34  13  41 SW13      30.13F WCI  25
HILL CITY      SUNNY     36  19  50 W16       30.09F WCI  26
RUSSELL        SUNNY     33  13  43 SW15      30.12F WCI  23
$$

KSZ061>065-074>080-084>089-251800-
SOUTHWEST KANSAS

CITY           SKY/WX    TMP DP  RH WIND       PRES   REMARKS
DODGE CITY     MOSUNNY   33  15  47 SW12      30.13F WCI  24
ELKHART          N/A     35  14  42 SW14        N/A  WCI  26
GARDEN CITY    SUNNY     34  12  40 SW16G23   30.09F WCI  24
GREAT BEND     SUNNY     34  11  38 SW12      30.15F WCI  25
LIBERAL        SUNNY     34  16  47 SW13G20   30.14F WCI  25
$$

KSZ066>073-081>083-090>101-251800-
SOUTHEAST KANSAS

CITY           SKY/WX    TMP DP  RH WIND       PRES   REMARKS
CHANUTE        SUNNY     35  15  44 VRB5      30.21F
COFFEYVILLE    SUNNY     36  17  46 NW8       30.25S
HUTCHINSON     SUNNY     33  14  45 W8        30.19F
MEDICINE LODGE   N/A     32  15  49 W6        30.21F
NEWTON         SUNNY     33  13  43 W8        30.20S
PARSONS        SUNNY     36  17  46 W5        30.24S
WICHITA INTL   MOSUNNY   34  14  43 W5        30.21F
WICHITA JABRA  SUNNY     32  14  47 SW6       30.20F
WINFIELD       SUNNY     34  17  50 W6        30.24F
$$

KSZ007>012-019>026-033>040-048>060-102>105-251800-
NORTHEAST KANSAS

CITY           SKY/WX    TMP DP  RH WIND       PRES   REMARKS
CONCORDIA      SUNNY     30  19  63 W3        30.15F
EMPORIA        SUNNY     32  14  47 CALM      30.19F
LAWRENCE       SUNNY     33  16  49 VRB7      30.19S
MANHATTAN      SUNNY     34  15  46 VRB7      30.20S
OLATHE IND     SUNNY     30  17  58 NW6       30.19R
OLATHE EXE     SUNNY     31  14  49 NW12      30.18R WCI  22
SALINA         SUNNY     34  11  38 S7        30.19F
TOPEKA BILLARD SUNNY     33  16  49 VRB3      30.20R
TOPEKA FORBES  SUNNY     33  14  45 VRB6      30.19R
$$



USA.gov is the U.S. government's official web portal to all federal, state and local government web resources and services.